Weather Roundup
Issued by NWS Chicago, IL

Home | Current Version | Previous Version | Graphics & Text | Print | Product List | Glossary On
Versions: 1 2 3 4 5 6 7 8 9 10 11 12 13 14 15 16 17 18 19 20 21 22 23 24 25 26 27 28 29 30 31 32 33 34 35 36 37 38 39 40 41 42 43 44 45 46 47 48 49 50
312
NZUS59 KLOT 202112
HRRLOT

CHICAGO AREA WEATHER ROUNDUP
NATIONAL WEATHER SERVICE CHICAGO/ROMEOVILLE IL
300 PM CST FRI JAN 20 2017

NOTE: "FAIR" INDICATES FEW OR NO CLOUDS BELOW 12,000 FEET WITH NO
SIGNIFICANT WEATHER AND/OR OBSTRUCTIONS TO VISIBILITY.

* THESE STATIONS ARE NOT UNDER NWS QUALITY CONTROL. THEY ALSO MAY NOT
  REPORT WEATHER SUCH AS PRECIPITATION OR FOG.

ILZ005-006-012>014-019>023-202200-
NORTHEAST ILLINOIS

CITY           SKY/WX    TMP DP  RH WIND       PRES   REMARKS
OHARE          CLOUDY    41  39  93 SE3       29.62R FOG
MIDWAY         CLOUDY    42  39  89 SE5       29.63R FOG
AURORA         CLOUDY    43  40  89 SE7       29.62R FOG
LANSING*       CLOUDY    44  44 100 CALM      29.63R
JOLIET*        CLOUDY    46  44  93 S3        29.63R
WAUKEGAN       FOG       38  38 100 SE5       29.62S VSB 1/8
DUPAGE AIRPORT CLOUDY    41  39  93 SE6       29.62R FOG
WHEELING       FOG       39  38  96 VRB3      29.64R VSB 1
KANKAKEE*      CLOUDY    46  46  98 CALM      29.64R
MORRIS*        CLOUDY    43  41  94 CALM      29.62R
LEWIS AIRPORT* CLOUDY    43  43 100 S6        29.63R
NORTHERLY ISL    N/A     36  35  96 CALM        N/A
$$

WIZ051-052-058>065-066-070>072-202200-
SOUTHEAST WISCONSIN

CITY           SKY/WX    TMP DP  RH WIND       PRES   REMARKS
MILWAUKEE      FOG       38  37  97 E9        29.63S VSB 1/4
KENOSHA*       FOG       38  37  97 E8        29.62S VSB<1/4
RACINE*        FOG       38  36  92 E7        29.63F VSB 1/4
WAUKESHA       FOG       36  36 100 E7        29.62F VSB 1/4
WEST BEND      CLOUDY    36  36 100 E7        29.62F FOG
$$

INZ001>003-010>013-019-020-202200-
NORTHWEST INDIANA

CITY           SKY/WX    TMP DP  RH WIND       PRES   REMARKS
GARY*          CLOUDY    45  43  93 VRB5      29.64R FOG
MICHIGAN CITY* NOT AVBL
RENSSELAER*    NOT AVBL
VALPARAISO     CLOUDY    45  45 100 S6        29.65R FOG
$$

LMZ740>746-202200-
SOUTHERN LAKE MICHIGAN

STATION/POSITION TIME  SKY/WX   TEMP WIND        PRES    VSBY
                                AIR  DIR/SP/G
                 (UTC)          (F)  (DEG/KT/KT) (MB)    (MI)
HARRISON CRIB    2040            37  100/  8/  8   N/A
BURNHAM HARBOR   2100            36  180/  2/  6   N/A
CALUMET HARBOR   2048            37  100/  2/  4 1003.4R
BURNS HARBOR     2040            36   80/  7/  8 1004.1F
MICHIGAN CITY    2040            36   40/  4/  5   N/A
$$

ABBREVIATIONS USED IN REMARKS
   TC - TEMPERATURE IN CELSIUS
  WCI - WIND CHILL INDEX
   HX - HEAT INDEX
  VSB - VISIBILITY
$$




USA.gov is the U.S. government's official web portal to all federal, state and local government web resources and services.